ATLAS 5 CENTAUR DEB, 44106

Orbit data source: Space-Track

ATLAS 5 CENTAUR DEB, 44106 is space debris in HEO originally from a launch on Wed, 17 Sep 2014 UTC launched from the Air Force Eastern Test Range (AFETR). Debris objects in space refer to the collection of defunct objects orbiting the Earth. Examples of debris include non-operational satellites, rocket bodies, and fragments generated from explosions, collisions, or faulty payload assembly.

Loading next visibility...
Identifier
44106, 2014-055CB
Orbit
HEO
Country
Flag of USUS
Related business
Flag of USUnited Launch Alliance/Lockheed Martin (US)
Manufacturer
Unknown
Mission
Spacecraft
Bus & Motor
Unknown
Mass
Unknown
Launch date (UTC)
2014-09-17 (12 years ago)
Launch vehicle
Unknown
Launch site
Air Force Eastern Test Range (AFETR)
Object type
Payload
Rocket body
Debris
Shape & HBR
Unknown shape, 1.1 m
Radar Cross Section
Small (<0.1 m²)

Expand to show TLE details & history
Last TLE update: 1 week ago

TLE from 1 week ago
0 ATLAS 5 CENTAUR DEB
1 44106U 14055CB  26109.71066385 -.00000014  00000-0  00000-0 0  9990
2 44106  20.0043 148.3722 4827631 155.9478 237.3809  1.84988899 48663
Epoch: 2026-04-19T17:03Z
TLE epoch observation values (Epoch: 2026-04-19T17:03:21.356Z)
Latitude
0.00002°
Longitude
44.7825°
Altitude
32,043.011 km
Speed
2.555 km/s
True Right ascension
09h 53m 43s
True Declination
0° 00' 00"
Sunlit
Object was in daylight at epoch
Visualization orbit readout
Latitude
Unknown
Longitude
Unknown
Altitude
Unknown
Speed
Unknown
Apparent Right ascension
Unknown
Apparent Declination
Unknown
Sunlit
N/A
Visualization observer readout
Local Sidereal Time
10:32:59
Azimuth
Unknown
Elevation
Unknown
Doppler factor
Unknown
Orbital elements
Apogee altitude
35,188.03 km
Perigee altitude
8,121.519 km
Semi-major axis
28,032.912 km
Eccentricity
0.48276
Inclination
20.0043°
RAAN
148.3722°
Arg. of periapsis
155.9478°
True anomaly
204.0784°
Mean anomaly
237.3809°
Eccentric anomaly
219.70904°
Mean motion
0.46242 °/min
Orbital period
778.51 mins
BSTAR
0
Loading maneuver chart data...
Computing Atmospheric mass density...

Documentation

Showing up to 5 results
|